Weather observations for the past three days for
Beckley, Raleigh County Memorial Airport
Imperial (Metric)
Date Time (edt) Wind (mph) Vis. (mi.) Weather Sky Cond. Temperature (ºF) Relative Humidity Wind Chill (°F) Heat Index (°F) Pressure Precipitation (in)
Air Dwpt 6 hour altimeter (in) sea level (mb) 1 hr 3 hr 6 hr
Max. Min.
16 09:51 SW 9 10.00 Fair CLR 81 66.9 62% 83 30.06 1013.5
16 08:51 SW 6 10.00 Fair CLR 77 64.9 66% 79 30.06 1013.5
16 07:51 S 5 10.00 A Few Clouds FEW035 75 64.9 75 71.1 71% 77 30.05 1012.9
16 06:51 SW 3 10.00 A Few Clouds FEW048 73 63 71% 30.05 1012.9
16 05:51 SW 7 10.00 Fair CLR 71.1 63 76% 30.04 1012.4
16 04:51 S 6 10.00 Fair CLR 72 63 73% 30.03 1012.1
16 03:51 SW 5 10.00 Fair CLR 72 62.1 71% 30.03 1012.1
16 02:51 SW 5 10.00 Fair CLR 72 62.1 71% 30.05 1012.9
16 01:51 Calm 10.00 Fair CLR 73 62.1 86 73 69% 30.04 1012.5
16 00:51 S 3 10.00 Fair CLR 75.9 62.1 62% 78 30.03 1012.2
15 23:51 Calm 10.00 Fair CLR 75.9 63 64% 78 30.02 1012.0
15 22:51 SW 5 10.00 Fair CLR 78.1 62.1 58% 80 30.03 1012.3
15 21:51 S 8 10.00 Fair CLR 79 62.1 56% 80 30.03 1012.4
15 20:51 SW 5 10.00 Fair CLR 82 62.1 51% 83 30.04 1012.6
15 19:51 W 8 10.00 Fair CLR 86 61 91.9 86 43% 86 30.03 1012.3
15 18:51 W 8 10.00 Fair CLR 87.1 60.1 40% 87 30.02 1012.5
15 17:51 NW 8 10.00 Partly Cloudy SCT070 90 60.1 37% 90 30.02 1012.4
15 16:51 W 10 10.00 Fair CLR 91 59 34% 90 30.04 1012.8
15 15:51 W 9 10.00 A Few Clouds FEW060 91 60.1 35% 91 30.07 1013.7
15 14:51 W 9 G 17 10.00 A Few Clouds FEW055 90 60.1 37% 90 30.09 1014.5
15 13:51 Vrbl 5 10.00 Fair CLR 89.1 62.1 89.1 73 41% 89 30.11 1015.2
15 12:51 Vrbl 6 10.00 A Few Clouds FEW047 FEW060 84.9 62.1 46% 85 30.12 1016.0
15 11:51 W 8 10.00 Partly Cloudy SCT044 86 63 46% 87 30.14 1016.4
15 10:51 NW 10 G 17 10.00 Fair CLR 84 63 49% 85 30.15 1016.7
15 09:51 Vrbl 3 10.00 Fair CLR 80.1 63 56% 81 30.16 1017.2
15 08:51 SW 6 10.00 Fair CLR 77 61 58% 79 30.17 1017.6
15 07:51 SW 3 10.00 Fair CLR 73.9 61 73.9 62.1 64% 30.16 1017.0
15 06:51 S 5 10.00 Fair CLR 66 57.9 75% 30.14 1016.5
15 05:51 S 3 10.00 Fair CLR 64 57 78% 30.14 1016.4
15 04:51 N 5 10.00 Fair CLR 64.9 57 76% 30.13 1016.3
15 03:51 Calm 10.00 Fair CLR 66.9 57 71% 30.12 1015.5
15 02:51 Calm 10.00 Fair CLR 68 55.9 65% 30.12 1015.7
15 01:51 SE 3 8.00 Fair CLR 69.1 57 84 66 66% 30.14 1016.3
15 00:51 Calm 10.00 Fair CLR 69.1 55.9 63% 30.15 1016.8
14 23:51 S 6 10.00 Fair CLR 69.1 57 66% 30.15 1016.9
14 22:51 NE 3 10.00 Fair CLR 72 55.9 57% 30.16 1017.1
14 21:51 Calm 10.00 Fair CLR 72 55.9 57% 30.16 1017.3
14 20:51 NW 7 10.00 A Few Clouds FEW090 FEW110 77 55.9 48% 79 30.16 1017.4
14 19:51 NW 13 10.00 Fair CLR 84 57 91 84 40% 83 30.16 1017.1
14 18:51 NW 10 10.00 A Few Clouds FEW065 FEW080 87.1 57.9 37% 86 30.16 1017.2
14 17:51 W 10 10.00 A Few Clouds FEW070 89.1 55 31% 87 30.15 1016.8
14 16:51 Vrbl 7 10.00 A Few Clouds FEW075 89.1 54 30% 87 30.15 1016.9
14 15:51 W 13 G 18 10.00 Fair CLR 89.1 55 31% 87 30.16 1017.0
14 14:51 NW 15 G 25 10.00 Partly Cloudy SCT065 89.1 55.9 33% 87 30.17 1017.3
14 13:51 NW 13 10.00 Partly Cloudy FEW065 SCT080 87.1 57 88 71.1 36% 86 30.2 1018.3
14 12:51 NW 7 10.00 Partly Cloudy SCT055 SCT075 84.9 60.1 43% 85 30.22 1019.1
14 11:51 NW 13 10.00 Partly Cloudy SCT049 SCT055 84 60.1 44% 84 30.23 1019.4
14 10:51 W 7 G 17 10.00 Fair CLR 84 62.1 48% 85 30.23 1019.5
14 09:51 W 6 10.00 Fair CLR 79 61 54% 80 30.24 1019.9
14 08:51 SW 3 10.00 Fair CLR 75.9 62.1 62% 78 30.24 1019.9
14 07:51 Calm 10.00 Fair CLR 71.1 61 71.1 64.9 71% 30.25 1020.0
14 06:51 Calm 10.00 Fair CLR 66 59 78% 30.24 1019.9
14 05:51 Calm 10.00 Fair CLR 64.9 59 81% 30.23 1019.5
14 04:51 Calm 10.00 Fair CLR 64.9 59 81% 30.23 1019.7
14 03:51 Calm 10.00 Fair CLR 66.9 60.1 79% 30.23 1019.4
14 02:51 SE 3 10.00 Fair CLR 68 60.1 76% 30.23 1019.9
14 01:51 SE 3 10.00 Fair CLR 69.1 60.1 84.9 69.1 73% 30.25 1020.2
14 00:51 Calm 10.00 Fair CLR 70 60.1 71% 30.26 1020.4
13 23:51 Calm 8.00 Fair CLR 72 60.1 66% 30.25 1020.3
13 22:51 Calm 10.00 Fair CLR 73.9 60.1 62% 30.25 1020.0
13 21:51 Calm 10.00 Fair CLR 77 59 54% 79 30.25 1020.0
13 20:51 NW 5 10.00 Fair CLR 81 59 47% 81 30.24 1019.6
13 19:51 NW 7 10.00 Fair CLR 84.9 57.9 90 82.9 40% 84 30.23 1019.6
13 18:51 NW 8 10.00 Fair CLR 87.1 57.9 37% 86 30.22 1019.4
13 17:51 N 9 10.00 Partly Cloudy FEW070 SCT090 88 59 38% 87 30.22 1019.2
13 16:51 N 10 10.00 Partly Cloudy SCT065 87.1 59 39% 86 30.23 1019.6
13 15:51 Vrbl 5 10.00 Mostly Cloudy SCT060 BKN110 88 59 38% 87 30.24 1019.8
13 14:51 N 9 10.00 Mostly Cloudy FEW055 SCT090 BKN110 84 60.1 44% 84 30.25 1020.4
13 13:51 Vrbl 7 10.00 Mostly Cloudy FEW065 BKN120 87.1 59 87.1 70 39% 86 30.26 1020.4
13 12:51 SW 8 10.00 Mostly Cloudy BKN060 BKN070 87.1 59 39% 86 30.27 1020.6
13 11:51 W 7 10.00 Mostly Cloudy BKN047 BKN060 84 59 43% 84 30.28 1021.0
13 10:51 Calm 10.00 A Few Clouds FEW049 82.9 64 53% 84 30.28 1021.1
Date Time (edt) Wind (mph) Vis. (mi.) Weather Sky Cond. Air Dwpt Max. Min. Relative Humidity Wind Chill (°F) Heat Index (°F) altimeter (in) sea level (mb) 1 hr 3 hr 6 hr
6 hour
Temperature (ºF) Pressure Precipitation (in)